Location: Chevoux
(46.3801°N, 4.9476°E)
Time: 17:32:04
(UTC+00:00)

Aureole 3 Rocket - Pass Details

Date: 28 January 2021
Orbit: 398 x 1740 km, 82.5° (Epoch: 28 February)

Event Time Altitude Azimuth Distance (km) Brightness Sun altitude
Rises 17:38:03 0° 356° (N) 2,361 5.9 -10.4°
Reaches altitude 10° 17:39:58 10° 3° (N) 1,548 4.9 -10.7°
Maximum altitude 17:43:08 49° 79° (E) 642 2.7 -11.2°
Drops below altitude 10° 17:47:04 10° 156° (SSE) 1,913 5.5 -11.9°
Sets 17:49:39 0° 161° (SSE) 3,005 6.5 -12.3°
